TIGRISAT

Last updated on Sun Apr 12 2026 00:03:55 GMT+0000 (Coordinated Universal Time)

1 40043U 14033AK 26101.40878459 .00001497 00000+0 17894-3 0 9999 2 40043 97.7734 252.9958 0048160 294.3057 65.3133 14.84889483635719
UTC large
Height (km)
Speed (km/s)
/
Latitude / Longitude
Inclination (degrees)
Orbital Period (minutes)
Azimuth
Elevation
Range (km)
Doppler Factor

Next 0 passes for location: London (51.5072 / 0.1276)

Sorry there are no passes over London.